Weather reports worldwide

Advertisment
Greifswald, Germany (10184): temperature & dewpoint: 24.10.2020 12:00:00 - 30.10.2020 12:00:00 (CET)Greifswald, Germany (10184): temperature 5cm & temperature -5cm: 24.10.2020 12:00:00 - 30.10.2020 12:00:00 (CET)Greifswald, Germany (10184): temperature -20cm & temperature -100cm: 24.10.2020 12:00:00 - 30.10.2020 12:00:00 (CET)Greifswald, Germany (10184): wind speed & gusts: 24.10.2020 12:00:00 - 30.10.2020 12:00:00 (CET)Greifswald, Germany (10184): wind direction: 24.10.2020 12:00:00 - 30.10.2020 12:00:00 (CET)Greifswald, Germany (10184): reduced air pressure: 24.10.2020 12:00:00 - 30.10.2020 12:00:00 (CET)Greifswald, Germany (10184): visibility: 24.10.2020 12:00:00 - 30.10.2020 12:00:00 (CET)Greifswald, Germany (10184): sunshine duration: 24.10.2020 12:00:00 - 30.10.2020 12:00:00 (CET)Greifswald, Germany (10184): precipitation: 24.10.2020 12:00:00 - 30.10.2020 12:00:00 (CET)
Date & Time tt [°C] td [°C] tt 5cm [°C] tt -5cm [°C] tt -20cm [°C] tt -100cm [°C] ff [km/h] ff [kn] fx [km/h] fx [kn] dd ppp [hPa] vv [km] sd [min] rr [mm]
30.10.2020 12:00:00 9,2 8,4 9,3 9,3 8,8 12,1 10 5 22 12 SSE 1012,4 3,5 0 0,8
30.10.2020 11:00:00 8,7 8,1 8,8 8,7 8,6 12,1 9 5 21 12 SSE 1012,9 5 0 0,9
30.10.2020 10:00:00 8,4 7,8 8,3 8,2 8,5 12,2 11 6 22 12 SSE 1012,9 6 0 0,8
30.10.2020 09:00:00 8,0 7,4 7,7 7,8 8,5 12,2 8 5 19 10 SSE 1013,2 9 0 1,0
30.10.2020 08:00:00 7,8 7,1 7,3 7,5 8,5 12,2 10 5 19 10 SSE 1013,4 13 0 0,7
30.10.2020 07:00:00 7,6 6,9 7,0 7,3 8,5 12,2 9 5 16 9 S 1013,3 12 0 0,4
30.10.2020 06:00:00 7,3 6,3 6,7 7,2 8,5 12,2 9 5 18 10 S 1013,6 16 0 0,0
30.10.2020 05:00:00 7,3 6,0 6,6 7,0 8,6 12,2 7 4 14 8 S 1013,9 25 0 0,0
30.10.2020 04:00:00 7,1 5,9 6,1 7,0 8,7 12,2 9 5 16 8 S 1013,9 22 0 0,0
30.10.2020 03:00:00 7,5 6,1 6,5 7,0 8,8 12,2 10 6 20 11 SW 1014,4 25 0 0,0
30.10.2020 02:00:00 7,5 6,1 6,5 7,0 8,9 12,2 9 5 19 10 SW 1014,5 25 0 0,0
30.10.2020 01:00:00 7,9 6,5 6,5 7,3 9,0 12,2 10 6 18 10 SW 1014,5 26 0 0,0
30.10.2020 00:00:00 8,7 7,0 7,5 7,7 9,1 12,2 11 6 23 12 SW 1014,4 27 0 0,0
29.10.2020 23:00:00 8,6 6,9 7,8 7,4 9,3 12,2 13 7 22 12 WSW 1014,3 30 0 0,0
29.10.2020 22:00:00 8,3 6,5 6,9 7,6 9,4 12,2 11 6 21 12 SW 1014,1 35 0 0,0
29.10.2020 21:00:00 8,8 6,5 7,3 8,0 9,6 12,2 14 7 23 12 WSW 1013,7 41 0 0,0
29.10.2020 20:00:00 8,5 6,1 7,2 8,0 9,8 12,2 14 7 24 13 WSW 1013,2 47 0 0,0
29.10.2020 19:00:00 8,7 6,0 7,5 8,4 10,0 12,2 13 7 22 12 WSW 1012,6 47 0 0,0
29.10.2020 18:00:00 9,4 6,3 7,9 9,0 10,2 12,2 14 8 38 20 WSW 1012,1 55 0 0,0
29.10.2020 17:00:00 10,4 6,3 9,3 9,8 10,2 12,3 19 11 32 17 WSW 1011,2 50 4 0,0
29.10.2020 16:00:00 10,8 6,6 10,4 10,3 10,1 12,3 19 10 34 18 WSW 1010,4 55 19 0,0
29.10.2020 15:00:00 10,6 6,8 10,0 10,3 10,0 12,3 17 9 35 19 WSW 1009,9 50 12 0,1
29.10.2020 14:00:00 10,6 6,0 10,5 10,3 9,9 12,3 19 11 42 23 WSW 1009,3 60 20 0,0
29.10.2020 13:00:00 10,8 5,9 11,5 10,1 9,7 12,3 24 13 41 22 WSW 1008,7 55 5 0,0
29.10.2020 12:00:00 10,5 5,9 10,6 10,1 9,6 12,3 24 13 44 24 WSW 1008,2 65 2 0,0
29.10.2020 11:00:00 10,6 6,3 10,8 9,9 9,4 12,3 21 11 40 22 WSW 1007,5 65 36 0,0
29.10.2020 10:00:00 10,2 7,3 10,4 9,3 9,2 12,3 17 9 30 16 WSW 1006,7 58 27 0,0
29.10.2020 09:00:00 9,3 7,8 8,8 8,6 9,2 12,3 13 7 26 14 SW 1006,1 55 0 0,8
29.10.2020 08:00:00 9,4 8,2 8,6 8,5 9,1 12,3 13 7 27 14 SW 1005,5 15 0 1,5
29.10.2020 07:00:00 9,7 8,0 8,7 8,3 9,1 12,3 13 7 27 14 SSW 1004,9 25 0 0,2
29.10.2020 06:00:00 9,5 7,9 8,4 8,2 9,1 12,3 12 6 23 12 S 1005,1 57 0 0,3
29.10.2020 05:00:00 9,3 7,4 8,4 7,9 9,1 12,3 8 5 20 11 S 1005,3 42 0 0,0
29.10.2020 04:00:00 9,0 7,2 8,2 7,6 9,3 12,3 10 6 23 12 S 1005,5 59 0 0,0
29.10.2020 03:00:00 8,4 7,1 6,9 7,4 9,4 12,3 10 6 19 10 SSE 1006,1 67 0 0,0
29.10.2020 02:00:00 9,0 7,3 7,2 7,7 9,6 12,3 9 5 21 11 S 1006,7 55 0 0,0
29.10.2020 01:00:00 9,0 7,6 6,8 8,0 9,7 12,3 10 5 21 12 S 1007,0 51 0 0,0
29.10.2020 00:00:00 9,0 7,8 7,3 8,3 9,9 12,3 9 5 19 10 S 1007,5 52 0 0,0
28.10.2020 23:00:00 9,0 7,7 7,2 8,7 10,0 12,4 8 5 20 11 SSE 1007,8 55 0 0,0
28.10.2020 22:00:00 9,9 8,2 8,6 8,9 10,1 12,4 9 5 22 12 S 1008,3 53 0 0,0
28.10.2020 21:00:00 9,6 7,8 7,9 9,0 10,3 12,4 8 4 23 13 S 1008,2 59 0 0,1
28.10.2020 20:00:00 8,8 7,2 6,3 8,9 10,5 12,4 6 3 14 8 S 1008,4 62 0 0,0
28.10.2020 19:00:00 9,1 7,4 7,2 9,6 10,7 12,4 7 4 17 9 S 1008,3 56 0 0,0
28.10.2020 18:00:00 9,9 7,5 8,0 10,5 10,8 12,4 7 4 33 18 S 1008,3 60 0 0,1
28.10.2020 17:00:00 12,0 8,0 10,8 10,9 10,8 12,4 8 4 24 13 S 1007,9 50 0 0,0
28.10.2020 16:00:00 12,8 8,0 11,7 11,6 10,6 12,4 11 6 29 16 S 1007,7 55 19 0,0
28.10.2020 15:00:00 13,2 8,1 12,7 11,8 10,4 12,4 15 8 30 16 SSW 1007,7 60 29 0,0
28.10.2020 14:00:00 13,6 8,0 14,3 11,8 10,0 12,4 14 7 29 16 SSW 1007,4 60 43 0,0
28.10.2020 13:00:00 12,9 7,8 12,9 11,2 9,7 12,4 14 8 31 17 SSW 1007,2 60 38 0,0
28.10.2020 12:00:00 12,3 8,0 12,4 10,4 9,4 12,4 14 8 29 15 SSW 1007,2 65 49 0,0
28.10.2020 11:00:00 11,1 7,6 10,8 9,5 9,2 12,4 11 6 31 17 SSW 1007,0 60 0 0,0
28.10.2020 10:00:00 10,4 7,5 10,0 9,0 9,1 12,4 15 8 28 15 SSW 1006,6 55 0 0,0
28.10.2020 09:00:00 9,5 7,8 8,9 8,5 9,0 12,4 14 8 27 15 SSW 1005,9 45 0 0,1
28.10.2020 08:00:00 9,2 7,6 8,3 8,1 9,0 12,4 13 7 37 20 SSW 1005,5 13 0 0,1
28.10.2020 07:00:00 9,4 6,5 8,8 7,9 9,0 12,4 18 10 35 19 SSW 1004,9 25 0 0,0
28.10.2020 06:00:00 9,0 5,9 8,3 7,7 9,0 12,4 19 10 37 20 SSW 1004,7 21 0 0,0
28.10.2020 05:00:00 8,9 5,5 7,8 7,5 9,0 12,4 15 8 32 17 S 1004,6 46 0 0,0
28.10.2020 04:00:00 8,6 5,4 7,8 7,3 9,1 12,4 13 7 31 17 S 1004,7 58 0 0,0
28.10.2020 03:00:00 8,5 5,4 7,0 7,3 9,2 12,4 12 7 28 15 S 1005,4 65 0 0,0
28.10.2020 02:00:00 8,3 5,4 7,0 7,3 9,4 12,4 10 6 23 13 S 1005,8 62 0 0,0
28.10.2020 01:00:00 8,6 5,5 7,1 7,4 9,6 12,4 11 6 27 15 S 1006,3 62 0 0,0
28.10.2020 00:00:00 8,8 5,7 7,1 7,7 9,8 12,5 14 8 27 15 S 1006,4 69 0 0,0
27.10.2020 23:00:00 8,8 6,0 6,8 8,1 9,9 12,5 11 6 24 13 S 1006,8 57 0 0,0
27.10.2020 22:00:00 8,8 6,3 7,6 8,2 10,1 12,5 11 6 23 13 S 1006,9 63 0 0,0
27.10.2020 21:00:00 8,8 6,4 6,6 8,4 10,3 12,5 11 6 24 13 S 1006,7 57 0 0,0
27.10.2020 20:00:00 8,9 6,8 7,0 8,9 10,5 12,5 8 5 21 11 S 1006,7 52 0 0,0
27.10.2020 19:00:00 8,5 7,3 7,4 9,4 10,7 12,5 5 3 29 16 SSE 1006,9 50 0 1,1
27.10.2020 18:00:00 9,8 7,2 8,3 9,7 10,8 12,5 12 7 27 14 SSW 1007,1 4,5 0 1,2
27.10.2020 17:00:00 10,5 7,3 9,4 10,3 10,9 12,5 7 4 21 12 S 1006,6 45 10 0,0
27.10.2020 16:00:00 11,4 7,2 9,8 11,2 10,8 12,5 13 7 27 15 S 1006,2 60 42 0,0
27.10.2020 15:00:00 11,8 7,0 11,5 11,4 10,6 12,5 13 7 31 17 SSW 1006,5 50 32 0,0
27.10.2020 14:00:00 11,8 7,1 12,0 11,4 10,3 12,5 16 9 31 17 SSW 1006,7 50 15 0,0
27.10.2020 13:00:00 11,4 6,8 11,5 11,2 10,0 12,5 18 10 29 15 SSW 1006,5 50 10 0,0
27.10.2020 12:00:00 11,0 7,3 11,5 10,6 9,7 12,5 14 8 26 14 S 1006,5 45 7 0,0
27.10.2020 11:00:00 10,0 7,1 10,3 9,6 9,6 12,5 12 6 26 14 SSW 1006,6 45 0 0,0
27.10.2020 10:00:00 9,0 6,7 9,1 8,6 9,5 12,5 11 6 23 12 S 1006,5 40 0 0,0
27.10.2020 09:00:00 8,2 6,3 7,5 8,0 9,6 12,5 11 6 23 12 S 1006,2 40 0 0,0
27.10.2020 08:00:00 7,8 6,3 6,6 7,7 9,7 12,5 11 6 22 12 SSW 1005,9 40 0 0,0
27.10.2020 07:00:00 7,8 6,2 6,4 7,6 9,9 12,5 12 6 22 12 SSW 1005,6 40 0 0,0
27.10.2020 06:00:00 7,7 6,5 6,1 7,9 10,1 12,5 7 4 17 9 S 1005,3 30 0 0,0
27.10.2020 05:00:00 7,8 6,9 6,1 8,2 10,2 12,5 8 4 16 9 S 1004,6 25 0 0,0
27.10.2020 04:00:00 8,4 7,4 7,1 8,4 10,4 12,5 8 4 16 9 S 1004,4 28 0 0,0
27.10.2020 03:00:00 8,6 7,6 6,8 8,7 10,6 12,5 8 4 16 9 S 1004,1 25 0 0,0
27.10.2020 02:00:00 9,1 7,8 7,7 9,0 10,8 12,5 9 5 16 9 SSW 1004,2 28 0 0,0
27.10.2020 01:00:00 9,4 8,2 8,1 9,4 11,0 12,5 9 5 19 10 SW 1004,3 25 0 0,0
27.10.2020 00:00:00 9,9 8,6 8,7 9,9 11,1 12,5 7 4 24 13 SW 1003,8 28 0 0,0
26.10.2020 23:00:00 10,4 9,4 9,6 10,3 11,2 12,5 9 5 17 9 SW 1003,7 18 0 0,0
26.10.2020 22:00:00 10,7 9,8 10,1 10,5 11,2 12,5 8 4 14 7 SW 1003,4 11 0 0,0
26.10.2020 21:00:00 10,7 10,1 10,0 10,7 11,3 12,5 7 4 13 7 SSW 1003,2 10 0 0,0
26.10.2020 20:00:00 10,8 10,3 10,2 10,8 11,3 12,5 5 3 11 6 S 1002,8 12 0 0,3
26.10.2020 19:00:00 11,1 10,6 10,5 11,0 11,4 12,5 5 3 11 6 S 1003,1 4,3 0 0,9
26.10.2020 18:00:00 11,1 10,5 10,3 11,1 11,4 12,5 4 2 10 6 S 1002,9 8 0 0,6
26.10.2020 17:00:00 11,4 10,6 10,7 11,2 11,4 12,5 5 3 10 5 SSW 1002,7 10 0 0,4
26.10.2020 16:00:00 11,5 10,7 10,9 11,4 11,4 12,5 7 4 13 7 SSE 1002,8 13 0 0,1
26.10.2020 15:00:00 11,6 10,5 11,1 11,6 11,3 12,5 8 4 13 7 SSE 1002,5 20 0 0,0
26.10.2020 14:00:00 11,8 10,6 11,5 11,6 11,1 12,5 7 4 13 7 SSE 1002,2 25 0 0,0
26.10.2020 13:00:00 11,1 10,3 11,0 11,1 11,1 12,5 6 3 9 5 SE 1002,9 18 0 0,4
26.10.2020 12:00:00 11,2 10,0 10,8 11,0 11,0 12,5 5 3 9 5 SSE 1003,3 15 0 0,4
26.10.2020 11:00:00 11,4 9,5 11,0 10,9 10,9 12,5 5 3 13 7 SSE 1003,3 25 0 0,0
26.10.2020 10:00:00 11,2 9,1 10,9 10,5 10,8 12,5 7 4 14 8 SSW 1003,2 40 0 0,0
26.10.2020 09:00:00 10,6 8,9 10,1 10,1 10,9 12,5 6 4 16 9 SSE 1002,9 29 0 0,0
26.10.2020 08:00:00 10,5 8,9 9,9 9,8 10,9 12,5 8 4 16 8 SSE 1002,9 25 0 0,0
26.10.2020 07:00:00 10,3 8,7 9,5 9,6 11,0 12,5 7 4 14 8 S 1002,7 35 0 0,0
26.10.2020 06:00:00 10,0 8,5 8,3 9,6 11,2 12,5 6 3 17 9 S 1002,7 30 0 0,0
26.10.2020 05:00:00 9,7 8,5 7,7 9,8 11,4 12,5 6 3 12 7 S 1002,3 25 0 0,0
26.10.2020 04:00:00 10,5 8,8 8,3 10,1 11,6 12,5 7 4 13 7 SSW 1003,1 40 0 0,0
26.10.2020 03:00:00 10,7 8,9 8,3 10,6 11,7 12,5 7 4 14 8 SSE 1002,3 35 0 0,0
26.10.2020 02:00:00 12,4 9,5 11,4 11,2 11,7 12,5 3 2 15 8 S 1002,6 40 0 0,0
26.10.2020 01:00:00 12,7 9,4 11,8 11,2 11,8 12,5 10 5 18 10 SSW 1003,2 50 0 0,0
26.10.2020 00:00:00 12,3 9,5 11,2 11,2 11,9 12,5 7 4 14 7 S 1002,9 50 0 0,0
25.10.2020 23:00:00 12,6 9,5 11,1 11,3 12,0 12,5 5 3 18 10 S 1003,3 50 0 0,0
25.10.2020 22:00:00 13,2 9,5 11,9 11,5 12,0 12,5 8 4 18 10 S 1003,5 50 0 0,0
25.10.2020 21:00:00 13,2 9,5 12,0 11,6 12,1 12,4 10 6 23 13 SSE 1003,6 60 0 0,0
25.10.2020 20:00:00 13,6 9,5 12,6 11,8 12,2 12,4 10 5 24 13 SSE 1003,7 70 0 0,0
25.10.2020 19:00:00 13,9 9,6 12,5 12,0 12,3 12,4 13 7 26 14 SSE 1004,0 70 0 0,0
25.10.2020 18:00:00 14,1 10,1 13,1 12,2 12,4 12,4 13 7 27 14 SSE 1004,6 50 0 0,0
25.10.2020 17:00:00 14,0 10,2 12,7 12,5 12,4 12,4 14 7 24 13 SSE 1004,5 70 0 0,0
25.10.2020 16:00:00 14,5 10,2 13,4 13,0 12,4 12,4 11 6 28 15 S 1004,7 70 0 0,0
25.10.2020 15:00:00 14,6 10,3 14,0 13,3 12,2 12,4 14 8 30 16 SSE 1004,8 70 0 0,0
25.10.2020 14:00:00 14,9 10,3 14,6 13,4 12,0 12,4 14 8 37 20 S 1005,3 75 0 0,0
25.10.2020 13:00:00 14,5 9,9 14,5 13,3 11,8 12,4 14 7 34 18 S 1005,6 75 0 0,0
25.10.2020 12:00:00 14,8 9,8 15,1 13,2 11,5 12,4 15 8 34 18 S 1006,0 75 40 0,0
25.10.2020 11:00:00 14,1 9,3 15,0 12,3 11,3 12,4 19 10 35 19 S 1006,4 70 22 0,0
25.10.2020 10:00:00 13,2 8,9 14,0 11,5 11,2 12,4 15 8 36 19 S 1006,4 55 59 0,0
25.10.2020 09:00:00 12,2 8,6 12,5 10,6 11,2 12,4 10 5 25 14 S 1006,9 60 50 0,0
25.10.2020 08:00:00 11,1 8,5 10,0 10,3 11,3 12,4 12 7 26 14 S 1007,3 70 0 0,0
25.10.2020 07:00:00 11,3 8,6 10,0 10,8 11,4 12,4 11 6 26 14 S 1007,1 65 0 0,0
25.10.2020 06:00:00 12,3 9,2 11,6 11,0 11,4 12,4 10 6 26 14 S 1007,4 70 0 0,0
25.10.2020 05:00:00 12,6 9,5 11,9 11,0 11,4 12,4 10 6 22 12 S 1007,7 65 0 0,0
25.10.2020 04:00:00 12,5 9,7 11,7 10,9 11,4 12,4 10 5 19 10 S 1008,1 60 0 0,0
25.10.2020 03:00:00 12,7 9,8 11,6 11,0 11,4 12,4 8 5 18 10 S 1008,8 60 0 0,0
25.10.2020 02:00:00 12,6 9,9 11,8 10,9 11,5 12,4 8 5 21 12 S 1009,1 65 0 0,0
25.10.2020 01:00:00 - - - - - - - - - - - - - - -
25.10.2020 00:00:00 11,9 9,8 10,2 10,8 11,8 12,4 11 6 21 11 S 1009,8 45 0 0,0
24.10.2020 23:00:00 12,3 10,3 10,3 11,3 11,8 12,4 8 5 18 10 S 1010,2 45 0 0,0
24.10.2020 22:00:00 12,9 10,6 12,2 11,6 11,9 12,4 8 4 16 9 S 1010,4 45 0 0,0
24.10.2020 21:00:00 12,7 10,9 12,0 11,6 11,9 12,4 8 4 22 12 S 1010,6 40 0 0,0
24.10.2020 20:00:00 12,7 10,7 12,0 11,6 12,0 12,4 13 7 26 14 SSW 1010,9 50 0 0,0
24.10.2020 19:00:00 12,9 10,2 12,1 11,8 12,1 12,4 9 5 19 11 SSW 1011,2 50 0 0,0
24.10.2020 18:00:00 13,3 9,4 12,4 12,0 12,2 12,4 9 5 17 9 SSW 1011,1 55 0 0,0
24.10.2020 17:00:00 13,7 8,9 12,8 12,3 12,2 12,4 10 5 22 12 SW 1011,1 65 0 0,0
24.10.2020 16:00:00 14,2 8,3 13,4 12,8 12,2 12,4 14 8 33 18 WSW 1011,0 70 37 0,0
24.10.2020 15:00:00 14,7 9,0 14,1 13,3 12,0 12,4 16 9 30 16 WSW 1010,6 62 30 0,0
24.10.2020 14:00:00 14,6 10,2 15,1 13,3 11,8 12,4 14 8 27 15 SW 1010,8 52 32 0,0
24.10.2020 13:00:00 13,7 10,4 13,6 12,9 11,5 12,4 16 9 38 20 SW 1010,5 35 2 0,0
24.10.2020 12:00:00 13,7 10,5 13,9 12,7 11,3 12,4 16 8 34 19 SW 1010,6 23 0 0,0

tt = temperature
td = dewpoint
tt 5cm = temperature 5cm
tt -5cm = temperature -5cm
tt -20cm = temperature -20cm
tt -100cm = temperature -100cm
ff = wind speed
fx = gusts
dd = wind direction
ppp = reduced air pressure
vv = visibility
sd = sunshine duration
rr = precipitation

Next stations